Regional Weather Roundup
Issued by NWS

Home | Current Version | Previous Version | Text Only | Print | Product List | Glossary On
Versions: 1 2 3 4 5 6 7 8 9 10 11 12 13 14 15 16 17 18 19 20 21 22 23 24 25 26 27 28 29 30 31 32 33 34 35 36 37 38 39 40 41 42 43 44 45 46 47 48 49 50
000
ASUS42 KFFC 232203
RWRGA
WEATHER ROUNDUP FOR GEORGIA
NATIONAL WEATHER SERVICE PEACHTREE CITY GA
600 PM EDT SAT JUL 23 2016

NOTE: "FAIR" INDICATES FEW OR NO CLOUDS BELOW 12,000 FEET WITH NO
SIGNIFICANT WEATHER AND/OR OBSTRUCTIONS TO VISIBILITY.

* = USE WITH CAUTION. THE STATIONS MARKED WITH AN ASTERISK MAY NOT
REPORT WEATHER SUCH AS PRECIPITATION, FOG, OR THUNDER AND ARE NOT
QUALITY CONTROLLED BY NWS.

THE REMARK "TC" DENOTES TEMPERATURE READING IN DEGREES CELSIUS.

GAZ001>058-232300-
NORTH GEORGIA

CITY           SKY/WX    TMP DP  RH WIND       PRES   REMARKS
ATLANTA        CLOUDY    84  71  65 NE10      30.00F
ATHENS         PTSUNNY   80  73  79 VRB6      30.00F
CHAMBLEE       CLOUDY    78  69  73 VRB3      30.01F
PEACHTREE CITY CLOUDY    85  71  63 NW7       29.99S THUNDER HX  90
ROME           CLOUDY    77  73  87 N5        29.98F
WEST ATLANTA   CLOUDY    83  71  67 NE9       30.00S
CARTERSVILLE   CLOUDY    76  74  93 VRB3      30.00S


CITY           SKY/WX    TMP DP  RH WIND       PRES   REMARKS
DALTON*        CLOUDY    81  72  74 SE6       30.00F
LAWRENCEVILLE* SUNNY     79  72  78 SW8       30.02F
MARIETTA       CLOUDY    79  73  82 E8        30.01F
KENNESAW*      PTSUNNY   77  72  83 CALM      29.98F
CANTON*        CLOUDY    79  72  78 CALM      30.03F
BLAIRSVILLE*     N/A    N/A N/A N/A MISG      30.09R
$$

GAZ059>098-102>109-232300-
CENTRAL GEORGIA

CITY           SKY/WX    TMP DP  RH WIND       PRES   REMARKS
AUGUSTA-BUSH   MOSUNNY   95  70  44 S7        29.94F HX 101
AUGUSTA-DANIEL CLOUDY    91  73  55 NW8       29.97F HX  99
COLUMBUS       CLOUDY    95  68  41 W10       29.95F HX  99
MACON          MOSUNNY   93  67  42 S7        29.96F HX  96
ROBINS AFB     MOSUNNY   94  65  38 SW7       29.95F HX  97


CITY           SKY/WX    TMP DP  RH WIND       PRES   REMARKS
LAGRANGE*      CLOUDY    93  73  50 S5        29.97S HX 102
MILLEDGEVILLE* MOSUNNY   95  72  46 W6        29.96F HX 103
$$

GAZ099>101-110>166-232300-
SOUTH GEORGIA

CITY           SKY/WX    TMP DP  RH WIND       PRES   REMARKS
SAVANNAH       CLOUDY    90  72  55 E8        29.97R THUNDER HX  97
VALDOSTA       SUNNY     93  70  46 VRB3      29.96F HX  99
ALMA           MOSUNNY   95  68  41 S5        29.96S HX  99
ST SIMONS      SUNNY     89  72  56 SE12      29.97F HX  96
FT STEWART     CLOUDY    93  74  53 SE10      29.93S HX 102
ALBANY         SUNNY     94  69  44 VRB6      29.98F HX  99
HUNTER AFB     CLOUDY    89  76  64 S9        29.95S HX 101
MOODY AFB      SUNNY     92  72  51 E7        29.97S HX  99
BRUNSWICK      SUNNY     93  70  46 SE10      29.98F HX  99


CITY           SKY/WX    TMP DP  RH WIND       PRES   REMARKS
BAINBRIDGE*    MOSUNNY   93  72  49 SW6       29.96F HX 100
MOULTRIE*      SUNNY     91  70  49 SW5       29.98F HX  97
VIDALIA*       LGT RAIN  88  72  58 S3        29.98S HX  94
WAYCROSS*      MOSUNNY   99  65  32 S7        29.96S HX 103
DOUGLAS*       MOSUNNY   95  64  36 S3        29.97S HX  97
$$



USA.gov is the U.S. government's official web portal to all federal, state and local government web resources and services.